THOR ABLESTAR DEB, 351

Orbit data source: Space-Track

THOR ABLESTAR DEB, 351 is space debris in LEO originally from a launch on Thu, 29 Jun 1961 UTC launched from the Air Force Eastern Test Range (AFETR). Debris objects in space refer to the collection of defunct objects orbiting the Earth. Examples of debris include non-operational satellites, rocket bodies, and fragments generated from explosions, collisions, or faulty payload assembly.

Loading next visibility...
THOR ABLESTAR DEB details
Identifier
351, 1961-015DR
Orbit
LEO
Last TLE update20 hours ago
Origin
Flag of USUSAF SSD (US)
ManufacturerUnknown
MissionSpacecraft
Bus & MotorUnknown
MassUnknown
Launch date (UTC)
1961-06-29 (64 years ago)
Launch vehicleUnknown
Launch site
Air Force Eastern Test Range (AFETR)
Object type
Payload
Rocket body
Debris
Shape & HBRUnknown
Radar Cross SectionSmall (<0.1 m²)

Expand to show TLE details & history

TLE from 20 hours ago
0 THOR ABLESTAR DEB
1 00351U 61015DR  25014.64790057  .00011458  00000-0  17868-2 0  9993
2 00351  66.7459 113.3150 0026897 352.1430   7.9265 14.72922853300995
Epoch: 2025-01-14T15:32Z
Definitive object data (Epoch: 2025-01-14T15:32:58.609Z)
Latitude-0.00001°
Longitude125.71921°
Altitude635.176 km
Speed7.551 km/s
True Right ascension07h 33m 15s
True Declination0° 00' 00"
Sunlit
Object was in full shadow at TLE epoch
Visualization TLE readout
Latitude-6.76787°
Longitude-53.75044°
Altitude673.165 km
Speed7.511 km/s
Apparent Right ascension21h 35m 14s
Apparent Declination-27° 16' 38"
Sunlit
Object is in daylight
Visualization observer readout
Local Sidereal Time12:37:27
Azimuth85.689° E
Elevation-50.48°
Doppler factor1
Orbital elements
Apogee altitude668.993 km
Perigee altitude631.186 km
Semi-major axis7,028.227 km
Eccentricity0.0026897
Inclination66.7459°
RAAN113.315°
Arg. of periapsis352.143°
True anomaly7.96915°
Mean anomaly7.9265°
Eccentric anomaly7.94781°
Mean motion3.68362 °/min
BSTAR0.0017868
Orbital period97.73 mins
Loading maneuver chart data...

THOR ABLESTAR DEB Visibility forecast

Observer location: undefined°, undefined

Span
Click to sort rows by Start time (UTC) header in descending order
Start Az.
Max El. time (UTC)
Max El. Az.
Max El.
End time (UTC)
End Az.
8 mins2025-01-15 16:31:10.393Z347.302° N2025-01-15 16:35:10.393Z50.373° ENE31.461°2025-01-15 16:39:10.393Z120.357° SE
6 mins2025-01-15 18:13:10.393Z289.955° WNW2025-01-15 18:15:10.393Z257.277° W21.736°2025-01-15 18:19:10.393Z198.902° SSW
5 mins2025-01-16 06:48:10.393Z141.934° SSE2025-01-16 06:50:10.393Z109.593° ESE18.996°2025-01-16 06:53:10.393Z64.828° ENE
7 mins2025-01-16 08:27:10.393Z240.213° WSW2025-01-16 08:30:10.393Z298.491° NW33.21°2025-01-16 08:34:10.393Z12.988° NNE
|